Regional Weather Roundup
Issued by NWS

Home | Current Version | Previous Version | Text Only | Print | Product List | Glossary Off
Versions: 1 2 3 4 5 6 7 8 9 10 11 12 13 14 15 16 17 18 19 20 21 22 23 24 25 26 27 28 29 30 31 32 33 34 35 36 37 38 39 40 41 42 43 44 45 46 47 48 49 50

000
ASUS43 KMPX 060101
RWRMN
WEATHER ROUNDUP FOR MINNESOTA
NATIONAL WEATHER SERVICE TWIN CITIES/CHANHASSEN MN
800 PM CDT TUE MAY 05 2015


NOTE: "FAIR" INDICATES FEW OR NO CLOUDS BELOW 12,000 FEET WITH NO
SIGNIFICANT WEATHER AND/OR OBSTRUCTIONS TO VISIBILITY. N/A MEANS
CURRENT SKY AND/OR WEATHER CONDITIONS ARE NOT AVAILABLE.

MNZ060>063-068>070-060200-
   Twin Cities Metro

CITY           SKY/WX    TMP DP  RH WIND       PRES   REMARKS
TWIN CITIES    CLOUDY    60  54  80 SE10      30.13R
ST PAUL        LGT RAIN  61  53  75 S16       30.13S
CRYSTAL        CLOUDY    65  51  60 SE9       30.10S
BLAINE         CLOUDY    64  52  63 SE13      30.12R
LAKEVILLE      RAIN      55  52  88 SE9       30.13S
EDEN PRAIRIE   LGT RAIN  59  53  80 SE13      30.11R
SOUTH ST PAUL  RAIN      60  52  74 SE9G17    30.13R
LAKE ELMO      CLOUDY    63  50  63 SE9       30.14R
$$
MNZ001>005-007-008-013>017-022>024-027-028-060200-
   Northwest Minnesota

CITY           SKY/WX    TMP DP  RH WIND       PRES   REMARKS
BEMIDJI        PTCLDY    68  37  31 SE9       30.04S
HALLOCK        PTCLDY    73   5   7 S10       29.96S
ROSEAU         CLEAR     72  18  13 SE9       30.01S
WARROAD        CLEAR     70  30  23 SE7       30.03S
THIEF RVR FALL CLOUDY    73  27  17 S12       30.00S
CROOKSTON      PTCLDY    73  34  23 SE15      29.97F
FOSSTON        PTCLDY    72  34  25 S7        30.01S
DETROIT LAKES  PTCLDY    68  46  45 S16       30.03R
MOORHEAD       MOCLDY    72  48  43 S24G32    29.98R
PARK RAPIDS    MOCLDY    71  42  35 S17       30.04S
MAHNOMEN       FAIR      71  42  35 S8G17     30.00S
$$
MNZ006-009>011-018-025>026-060200-
   North Central Minnesota

CITY           SKY/WX    TMP DP  RH WIND       PRES   REMARKS
BAUDETTE       PTCLDY    68  26  20 S5        30.04S
FLAG ISLAND    PTCLDY    66  30  26 CALM      30.03S
INTL FALLS     CLEAR     68  25  19 S5        30.07S
WASKISH        PTCLDY    70  34  26 CALM      30.05S
BIG FORK       CLEAR     70  28  21 S7        30.08S
LONGVILLE      CLEAR     68  36  30 SE12      30.07F
GRAND RAPIDS   CLEAR     70  30  23 S12       30.09S
CRANE LAKE     PTCLDY    66  23  19 CALM      30.11S
ORR            PTCLDY    70  25  18 CALM      30.07F
COOK           PTCLDY    70  30  23 S8        30.11R
WALKER         FAIR      69  37  30 SE8       30.05S
$$
MNZ012-019>021-037-060200-
   Northeast Minnesota

CITY           SKY/WX    TMP DP  RH WIND       PRES   REMARKS
DULUTH         PTCLDY    60  26  27 E12       30.14S
ELY            PTCLDY    64  27  24 SE8       30.14R
HIBBING        PTCLDY    68  26  20 SE10      30.10S
EVELETH        PTCLDY    66  28  24 SE7       30.13S
DULUTH HARBOR    N/A     46  37  71 E10       30.16S
TWO HARBORS    CLEAR     61  34  36 NE8G16    30.15S
SILVER BAY     CLEAR     55  25  30 NE6       30.17R
GRAND MARAIS     N/A     47  31  53 NE6       30.19S
G MARAIS ARPRT CLEAR     55  19  24 E6        30.21S
$$
MNZ029>031-032-039>041-046>048-054>057-064-060200-
   West Central Minnesota

CITY           SKY/WX    TMP DP  RH WIND       PRES   REMARKS
FERGUS FALLS   CLOUDY    66  54  63 SE15G22   30.02S
WHEATON        CLOUDY    64  54  68 SE21      30.01R
MORRIS         CLOUDY    64  54  68 SE21      30.02S
ALEXANDRIA     CLOUDY    64  52  64 SE16G24   30.07R
ELBOW LAKE     CLOUDY    65  53  64 SE20G25   30.02S
WADENA         MOCLDY    66  46  48 SE13      30.05S
APPLETON       CLOUDY    64  54  68 SE12G18   30.02S
BENSON         CLOUDY    63  52  67 S15G21    30.04S
ORTONVILLE     CLOUDY    63  54  72 SE17      30.01S
MADISON        CLOUDY    63  54  72 SE20      30.02S
WILLMAR        CLOUDY    63  54  72 SE16G25   30.08S
$$
MNZ033>034-036-042>043-049>051-058-059-060200-
   Central Minnesota

CITY           SKY/WX    TMP DP  RH WIND       PRES   REMARKS
ST CLOUD       CLOUDY    64  49  57 SE12      30.08S
SAUK CENTRE    CLOUDY    63  51  64 SE15      30.07S
PAYNESVILLE    CLOUDY    61  51  69 E13       30.08S
AITKIN         CLOUDY    68  36  30 SE9       30.08R
PINE RIVER     CLOUDY    68  43  40 SE9       30.10R
BRAINERD       CLOUDY    67  42  40 S10       30.08S
STAPLES        CLOUDY    66  43  42 S10G18    30.07R
LONG PRAIRIE   CLOUDY    63  50  63 SE16G22   30.07S
LITTLE FALLS   CLOUDY    64  43  45 SE13      30.08S
LITCHFIELD     DRIZZLE   61  57  88 SE12      30.09S
BUFFALO        CLOUDY    64  50  62 SE9G18    30.11S
MAPLE LAKE     CLOUDY    65  54  67 SE10G17   30.10S
$$
MNZ037-044-045-052-053-060200-
   East Central Minnesota

CITY           SKY/WX    TMP DP  RH WIND       PRES   REMARKS
PRINCETON      MOCLDY    66  39  37 E10       30.11R
MORA           MOCLDY    64  34  32 SE7       30.13R
CAMBRIDGE      PTCLDY    66  45  45 SE9       30.10R
RUSH CITY      CLOUDY    65  34  31 S10       30.13R
MOOSE LAKE     CLOUDY    68  36  30 E6        30.11R
HINCKLEY       CLOUDY    68  36  30 S8        30.12R
CLOQUET        PTCLDY    57  25  28 E9        30.14S
MCGREGOR       MOCLDY    68  34  28 S10       30.10R
$$
MNZ071>073-080-081-089-090-097-098-060200-
   Southwest Minnesota

CITY           SKY/WX    TMP DP  RH WIND       PRES   REMARKS
MONTEVIDEO     CLOUDY    61  54  77 S16       30.05S
GRANITE FALLS  CLOUDY    59  54  83 SE17      30.06S
CANBY          DRIZZLE   61  55  80 SE14      30.03S
MARSHALL       CLOUDY    61  52  72 SE16      30.03F
REDWOOD FALLS  CLOUDY    59  53  80 SE16G23   30.06S
OLIVIA         CLOUDY    57  50  77 SE14G20   30.06S
PIPESTONE      CLOUDY    63  55  77 SE14      30.02S
WORTHINGTON    CLOUDY    61  55  82 E15       30.05R
JACKSON        CLOUDY    59  54  82 E15       30.07R FOG
TRACY          CLOUDY    60  56  86 SE13      30.04F
SLAYTON        CLOUDY    59  57  92 SE12      30.04F
$$
MNZ065>067-074>077-082>085-091>093-060200-
   South Central Minnesota

CITY           SKY/WX    TMP DP  RH WIND       PRES   REMARKS
MANKATO        CLOUDY    55  52  88 SE15      30.10S
NEW ULM        CLOUDY    55  52  88 SE10G20   30.08S
ST JAMES       CLOUDY    57  54  88 E16       30.09S
FAIRMONT       CLOUDY    57  50  77 E9        30.07R
GLENCOE        CLOUDY    58  56  93 SE13      30.09S
FARIBAULT      CLOUDY    55  52  88 E9G16     30.12F
OWATONNA       DRIZZLE   54  52  94 E12G22    30.12S
WASECA         CLOUDY    54  50  87 E13G18    30.12S
ALBERT LEA     CLOUDY    54  54 100 SE13      30.11F
$$
MNZ078>079-086>088-094>096-060200-
   Southeast Minnesota

CITY           SKY/WX    TMP DP  RH WIND       PRES   REMARKS
ROCHESTER      CLOUDY    53  51  93 SE13      30.16S
RED WING       CLOUDY    61  50  67 SE7       30.14S
STANTON        RAIN      56  52  86 E8        30.12F
DODGE CENTER   DRIZZLE   54  52  94 SE15      30.14S
WINONA         CLOUDY    54  52  94 SE6       30.18R FOG
AUSTIN         LGT RAIN  54  52  94 E12G17    30.13R
PRESTON        CLOUDY    52  50  95 E8        30.16S
$$
ABBREVIATIONS USED IN REMARKS
   TC - TEMPERATURES IN CELSIUS
  WCI - WIND CHILL INDEX
   HX - HEAT INDEX
  VSB - VISIBILITY
$$


USA.gov is the U.S. government's official web portal to all federal, state and local government web resources and services.